Location: Palomar Mountain Lodge
(33.3110°N, 116.8495°W)
Time: 06:11:03
(UTC-07:00)

ERS-1 Rocket - Pass Details

Date: 19 May 2017
Orbit: 753 x 758 km, 98.6° (Epoch: 28 May)

Event Time Altitude Azimuth Distance (km) Brightness Sun altitude
Exits shadow 21:21:32 32° 143° (SE) 1,263 3.6 -18.1°
Maximum altitude 21:23:44 63° 74° (ENE) 840 3.0 -18.4°
Drops below altitude 10° 21:28:41 10° 355° (N) 2,278 6.1 -19.2°
Sets 21:31:00 0° 352° (N) 3,207 7.0 -19.6°
